Location: München
(48.1351°N, 11.5820°E)
Time: 15:47:28
(UTC+02:00)

ISS - Visible Passes

Search period start: 24 August 2019 00:00
Search period end: 03 September 2019 00:00
Orbit: 410 x 421 km, 51.6° (Epoch: 25 August)

Date Brightness Start Highest point End Pass type
(mag) Time Alt. Az. Time Alt. Az. Time Alt. Az.
28 Aug -1.7 05:37:01 10° S 05:39:38 21° SE 05:42:14 10° E visible
29 Aug -1.2 04:49:17 10° SSE 04:51:01 14° SE 04:52:46 10° ESE visible
30 Aug -3.0 05:35:26 11° SW 05:38:29 45° SSE 05:41:43 10° ENE visible
31 Aug -2.4 04:48:40 24° S 04:49:46 29° SE 04:52:44 10° E visible
01 Sep -1.5 04:01:51 18° ESE 04:01:51 18° ESE 04:03:35 10° E visible
01 Sep -3.8 05:34:44 14° WSW 05:37:28 90° NNW 05:40:50 10° ENE visible
02 Sep -3.7 04:47:51 45° SSW 04:48:39 63° SSE 04:51:58 10° ENE visible
